Tracking 26931 objects as of 6-Feb-2023
HD Live streaming from Space Station
objects crossing your sky now

SL-8 R/B

Track SL-8 R/B now!
10-day predictions


NORAD ID: 10677
Int'l Code: 1978-019B
Perigee: 753.7 km
Apogee: 774.9 km
Inclination: 74.0 °
Period: 100.0 minutes
Semi major axis: 7135 km
RCS: 4.4372 m2 (large)
Launch date: February 17, 1978
Source: Commonwealth of Independent States (former USSR) (CIS)
Launch site: PLESETSK MISSILE AND SPACE COMPLEX (PKMTR)

Note: This is a ROCKET BODY
Your satellite tracking list
Your tracking list is empty




NASA's NSSDC Master Catalog

Two Line Element Set (TLE):
1 10677U 78019B   23036.88348293  .00000256  00000-0  88996-4 0  9992
2 10677  74.0372  95.2343 0014846  17.7378 342.4292 14.40402585358698
Source of the keplerian elements: AFSPC